STARLINK-3919 (52580 NORAD) Tracking and Keplerian Element Data
This shows tracking and keplerian element data for the satellite.
Feedback or suggestion? Click here.
Element | Value |
Catalog | 52580 |
Name | STARLINK-3919 |
Epoch Orbit | 130 |
Epoch Day | 167.08334491 |
Epoch Year | 2022 |
RAAN | 132.3664 |
Inclination | 53.2178 |
Eccentricity | 0.000154 |
Argument of Perigee | 46.2924 |
Mean Anonmoly | 217.9491 |
Mean Motion | 15.35484817 |
Decay Rate | -0.00829304 |
L1 | 1 52580U 22051AW 22167.08334491 -.00829304 00000+0 -25634-1 0 9998 |
L2 | 2 52580 53.2178 132.3664 0001540 46.2924 217.9491 15.35484817 1303 |
Live tracking and technical data element details for STARLINK-3919 (NORAD 52580). STARLINK-3919 can be tracked NOW for your location showing map with azimuth and elevation plus other details from your city location.
Track the satellite on the map from your city or location and see movement details for azimuth, elevation, latitude, longitude, range, height, and movement on the map or in text.
IsCatalogInMostPopularTable: catalog: 52580, numindb: 4
Update: records affected: 1
GetName: 52580 STARLINK-3919
Hit Count: updated at: Mon, 27 Jun 2022 06:23:00 GMT